Columbia Airport, CA

3:04 AM PST on December 07, 2019 (GMT -0800)
Columbia Airport

Weather History for KO22 - August, 2019

Change the Weather History Date:

Saturday, August 17, 2019

  Actual Average (WUND) Record (WUND)
Temperature  
Mean Temperature 78 °F -  
Max Temperature 95 °F - - (-1)
Min Temperature 62 °F - - (-1)
Cooling Degree Days 14    
Growing Degree Days 28 (Base 50)    
Moisture  
Dew Point 47 °F    
Average Humidity 38    
Maximum Humidity 64    
Minimum Humidity 16    
Precipitation  
Precipitation 0.00 in - - ()
Sea Level Pressure  
Sea Level Pressure 29.85 in    
Wind  
Wind Speed 2 mph (SSW)    
Max Wind Speed 8 mph    
Max Gust Speed 12 mph    
Visibility 10 miles    
Events      
Averages and records for this station are not official NWS values.
T = Trace of Precipitation, MM = Missing Value Source: NWS Daily Summary

Daily Weather History Graph

Daily Weather History Graph

Search for Another Location

Airport or City:

Astronomy

Aug. 17, 2019 Rise Set
Actual Time 6:18 AM PDT 7:52 PM PDT
Civil Twilight 5:50 AM PDT 8:20 PM PDT
Nautical Twilight 5:16 AM PDT 8:53 PM PDT
Astronomical Twilight 4:41 AM PDT 9:29 PM PDT
Moon 9:24 PM PDT (8/17) 8:10 AM PDT (8/17)
Length of Visible Light 14h 29m
Length of Day
13h 34m
Waning Gibbous, 95% of the Moon is Illuminated
Aug 17
Waning Gibbous
Aug 23
Last Quarter
Aug 30
New
Sep 5
First Quarter
Sep 13
Full

Hourly Weather History & Observations

Time (PDT) Temp. Dew Point Humidity Pressure Visibility Wind Dir Wind Speed Gust Speed Precip Events Conditions
12:15 AM 69.8 °F 48.2 °F 46% 29.88 in 10.0 mi Calm Calm - N/A   Overcast
12:35 AM 68.0 °F 46.4 °F 46% 29.87 in 10.0 mi Calm Calm - N/A   Overcast
12:55 AM 68.0 °F 46.4 °F 46% 29.87 in 10.0 mi Calm Calm - N/A   Overcast
1:15 AM 66.2 °F 46.4 °F 49% 29.87 in 10.0 mi Calm Calm - N/A   Overcast
1:35 AM 66.2 °F 46.4 °F 49% 29.86 in 10.0 mi Calm Calm - N/A   Overcast
1:55 AM 64.4 °F 46.4 °F 52% 29.86 in 10.0 mi Calm Calm - N/A   Overcast
2:15 AM 64.4 °F 46.4 °F 52% 29.86 in 10.0 mi Calm Calm - N/A   Overcast
2:35 AM 64.4 °F 46.4 °F 52% 29.86 in 10.0 mi Calm Calm - N/A   Overcast
2:55 AM 64.4 °F 46.4 °F 52% 29.85 in 10.0 mi Calm Calm - N/A   Overcast
3:15 AM 64.4 °F 46.4 °F 52% 29.85 in 10.0 mi Calm Calm - N/A   Overcast
3:35 AM 64.4 °F 46.4 °F 52% 29.84 in 10.0 mi North - - N/A   Scattered Clouds
3:55 AM 64.4 °F 46.4 °F 52% 29.84 in 10.0 mi North - - N/A   Clear
4:15 AM 62.6 °F 46.4 °F 55% 29.84 in 10.0 mi North - - N/A   Clear
4:35 AM 62.6 °F 46.4 °F 55% 29.84 in 10.0 mi Calm Calm - N/A   Clear
4:55 AM 62.6 °F 46.4 °F 55% 29.84 in 10.0 mi Calm Calm - N/A   Clear
5:15 AM 62.6 °F 46.4 °F 55% 29.84 in 10.0 mi Calm Calm - N/A   Clear
5:35 AM 62.6 °F 44.6 °F 52% 29.85 in 10.0 mi Calm Calm - N/A   Partly Cloudy
5:55 AM 62.6 °F 44.6 °F 52% 29.85 in 10.0 mi Calm Calm - N/A   Clear
6:15 AM 62.6 °F 44.6 °F 52% 29.85 in 10.0 mi Calm Calm - N/A   Clear
6:35 AM 62.6 °F 44.6 °F 52% 29.85 in 10.0 mi Calm Calm - N/A   Clear
6:55 AM 62.6 °F 44.6 °F 52% 29.85 in 10.0 mi North - - N/A   Clear
7:15 AM 64.4 °F 46.4 °F 52% 29.85 in 10.0 mi Calm Calm - N/A   Clear
7:35 AM 66.2 °F 48.2 °F 52% 29.85 in 10.0 mi Calm Calm - N/A   Clear
7:55 AM 69.8 °F 51.8 °F 53% 29.86 in 10.0 mi Calm Calm - N/A   Clear
8:15 AM 73.4 °F 53.6 °F 50% 29.86 in 10.0 mi North - - N/A   Clear
8:35 AM 77.0 °F 50.0 °F 39% 29.87 in 10.0 mi Calm Calm - N/A   Clear
8:55 AM 80.6 °F 48.2 °F 32% 29.87 in 10.0 mi Calm Calm - N/A   Clear
9:15 AM 82.4 °F 48.2 °F 30% 29.87 in 10.0 mi Calm Calm - N/A   Clear
9:35 AM 84.2 °F 46.4 °F 27% 29.87 in 10.0 mi Variable 3.5 mph - N/A   Clear
9:55 AM 86.0 °F 44.6 °F 23% 29.88 in 10.0 mi Variable 4.6 mph - N/A   Clear
10:15 AM 86.0 °F 42.8 °F 22% 29.88 in 10.0 mi Variable 4.6 mph - N/A   Clear
10:35 AM 87.8 °F 41.0 °F 19% 29.88 in 10.0 mi Variable 8.1 mph - N/A   Clear
10:55 AM 87.8 °F 42.8 °F 21% 29.88 in 10.0 mi Variable 6.9 mph - N/A   Clear
11:15 AM 89.6 °F 42.8 °F 20% 29.88 in 10.0 mi Variable 5.8 mph - N/A   Clear
11:35 AM 91.4 °F 44.6 °F 20% 29.88 in 10.0 mi Variable 3.5 mph - N/A   Clear
11:55 AM 91.4 °F 46.4 °F 21% 29.88 in 10.0 mi Variable 6.9 mph - N/A   Clear
12:15 PM 91.4 °F 46.4 °F 21% 29.88 in 10.0 mi Variable 5.8 mph 11.5 mph N/A   Clear
12:35 PM 91.4 °F 46.4 °F 21% 29.88 in 10.0 mi Variable 4.6 mph - N/A   Clear
12:55 PM 91.4 °F 46.4 °F 21% 29.87 in 10.0 mi Variable 5.8 mph - N/A   Clear
1:15 PM 93.2 °F 46.4 °F 20% 29.87 in 10.0 mi Variable 5.8 mph - N/A   Clear
1:35 PM 95.0 °F 46.4 °F 19% 29.86 in 10.0 mi Variable 6.9 mph - N/A   Clear
1:55 PM 93.2 °F 44.6 °F 19% 29.86 in 10.0 mi Variable 5.8 mph - N/A   Clear
2:15 PM 93.2 °F 42.8 °F 17% 29.86 in 10.0 mi Variable 6.9 mph - N/A   Clear
2:35 PM 93.2 °F 42.8 °F 17% 29.86 in 10.0 mi Variable 6.9 mph - N/A   Clear
2:55 PM 95.0 °F 42.8 °F 16% 29.85 in 10.0 mi Variable 4.6 mph - N/A   Clear
3:15 PM 93.2 °F 42.8 °F 17% 29.85 in 10.0 mi Variable 4.6 mph - N/A   Clear
3:35 PM 95.0 °F 42.8 °F 16% 29.84 in 10.0 mi Variable 4.6 mph 11.5 mph N/A   Clear
3:55 PM 93.2 °F 44.6 °F 19% 29.84 in 10.0 mi Variable 5.8 mph - N/A   Clear
4:35 PM 93.2 °F 44.6 °F 19% 29.83 in 10.0 mi Variable 4.6 mph - N/A   Clear
4:55 PM 93.2 °F 44.6 °F 19% 29.83 in 10.0 mi Variable 4.6 mph - N/A   Clear
5:15 PM 91.4 °F 44.6 °F 20% 29.83 in 10.0 mi Variable 4.6 mph - N/A   Clear
5:35 PM 91.4 °F 46.4 °F 21% 29.83 in 10.0 mi Calm Calm - N/A   Clear
6:15 PM 89.6 °F 46.4 °F 22% 29.82 in 10.0 mi Variable 6.9 mph - N/A   Clear
6:35 PM 89.6 °F 46.4 °F 22% 29.82 in 10.0 mi Variable 5.8 mph - N/A   Clear
6:55 PM 87.8 °F 48.2 °F 25% 29.81 in 10.0 mi Variable 4.6 mph - N/A   Clear
7:15 PM 87.8 °F 50.0 °F 27% 29.82 in 10.0 mi SSW 3.5 mph - N/A   Clear
7:35 PM 84.2 °F 50.0 °F 30% 29.82 in 10.0 mi Calm Calm - N/A   Clear
7:55 PM 80.6 °F 50.0 °F 34% 29.82 in 10.0 mi Calm Calm - N/A   Clear
8:15 PM 78.8 °F 51.8 °F 39% 29.82 in 10.0 mi Calm Calm - N/A   Clear
8:35 PM 77.0 °F 53.6 °F 44% 29.82 in 10.0 mi Calm Calm - N/A   Clear
8:55 PM 75.2 °F 53.6 °F 47% 29.83 in 10.0 mi Calm Calm - N/A   Clear
9:15 PM 73.4 °F 53.6 °F 50% 29.83 in 10.0 mi Calm Calm - N/A   Clear
9:35 PM 73.4 °F 53.6 °F 50% 29.84 in 10.0 mi Calm Calm - N/A   Partly Cloudy
9:55 PM 71.6 °F 53.6 °F 53% 29.84 in 10.0 mi Calm Calm - N/A   Scattered Clouds
10:15 PM 69.8 °F 51.8 °F 53% 29.84 in 10.0 mi Calm Calm - N/A   Mostly Cloudy
10:35 PM 69.8 °F 51.8 °F 53% 29.84 in 10.0 mi Calm Calm - N/A   Mostly Cloudy
10:55 PM 68.0 °F 51.8 °F 56% 29.84 in 10.0 mi Calm Calm - N/A   Partly Cloudy
11:15 PM 68.0 °F 51.8 °F 56% 29.84 in 10.0 mi Calm Calm - N/A   Clear
11:35 PM 66.2 °F 51.8 °F 60% 29.84 in 10.0 mi Calm Calm - N/A   Scattered Clouds
11:55 PM 64.4 °F 51.8 °F 64% 29.85 in 10.0 mi Calm Calm - N/A   Mostly Cloudy